Fairbanks Eiels, AK

5:04 PM AKDT on October 22, 2017 (GMT -0800)
Eielson Air Force Base

Weather History for PAEI - April, 2014

Change the Weather History Date:

Sunday, April 27, 2014

  Actual Average Record
Temperature  
Mean Temperature 42 °F -  
Max Temperature 60 °F 48 °F 73 °F (2005)
Min Temperature 27 °F 29 °F 14 °F (1950)
Degree Days  
Heating Degree Days 22    
Moisture  
Dew Point 22 °F    
Average Humidity 47    
Maximum Humidity 84    
Minimum Humidity 21    
Precipitation  
Precipitation 0.00 in - - ()
Sea Level Pressure  
Sea Level Pressure 29.45 in    
Wind  
Wind Speed 5 mph (NNE)    
Max Wind Speed 15 mph    
Max Gust Speed -    
Visibility 10 miles    
Events      
Averages and records for this station are not official NWS values.
T = Trace of Precipitation, MM = Missing Value Source: NWS Daily Summary

Daily Weather History Graph

Daily Weather History Graph

Search for Another Location

Airport or City:

Trip Planner

Search our weather history database for the weather conditions in past years. The results will help you decide how hot, cold, wet, or windy it might be!

Date:

Astronomy

Apr. 27, 2014 Rise Set
Actual Time 5:30 AM AKDT 10:04 PM AKDT
Civil Twilight 4:22 AM AKDT 11:12 PM AKDT
Nautical Twilight 2:18 AM AKDT 1:13 AM AKDT
Astronomical Twilight Sun does not rise Sun does not rise
Moon 5:21 AM AKDT (4/27) 8:17 PM AKDT (4/27)
Length of Visible Light 18h 49m
Length of Day
16h 33m
Waning Crescent, 2% of the Moon is Illuminated
Apr 27
Waning Crescent
Apr 28
New
May 6
First Quarter
May 14
Full
May 21
Last Quarter

Hourly Weather History & Observations

Time (AKDT) Temp. Windchill Dew Point Humidity Pressure Visibility Wind Dir Wind Speed Gust Speed Precip Events Conditions
12:58 AM 40.5 °F 35.8 °F 20.1 °F 44% 29.42 in 10.0 mi North 6.9 mph - N/A   Clear
1:58 AM 32.7 °F 25.7 °F 23.2 °F 68% 29.42 in 10.0 mi NNE 8.1 mph - N/A   Clear
2:58 AM 29.8 °F 24.9 °F 23.0 °F 76% 29.43 in 10.0 mi NNW 4.6 mph - N/A   Clear
3:58 AM 28.9 °F - 23.4 °F 80% 29.44 in 10.0 mi Calm Calm - N/A   Clear
4:58 AM 28.0 °F - 23.4 °F 83% 29.45 in 10.0 mi Calm Calm - N/A   Clear
5:58 AM 27.0 °F - 22.6 °F 84% 29.45 in 10.0 mi Calm Calm - N/A   Clear
6:58 AM 28.2 °F - 19.0 °F 68% 29.45 in 10.0 mi Calm Calm - N/A   Clear
7:58 AM 32.4 °F - 21.9 °F 65% 29.45 in 10.0 mi Calm Calm - N/A   Clear
8:58 AM 37.0 °F - 23.0 °F 57% 29.45 in 10.0 mi Calm Calm - N/A   Clear
9:58 AM 43.9 °F - 22.5 °F 43% 29.45 in 10.0 mi Variable 1.2 mph - N/A   Clear
10:58 AM 49.5 °F - 24.3 °F 37% 29.44 in 10.0 mi Variable 3.5 mph - N/A   Clear
11:58 AM 53.1 °F - 25.0 °F 34% 29.44 in 10.0 mi Variable 5.8 mph - N/A   Clear
12:58 PM 55.2 °F - 22.3 °F 28% 29.44 in 10.0 mi Calm Calm - N/A   Clear
1:58 PM 57.4 °F - 19.0 °F 22% 29.44 in 10.0 mi Variable 3.5 mph - N/A   Clear
2:58 PM 56.8 °F - 17.8 °F 22% 29.43 in 10.0 mi Variable 5.8 mph - N/A   Partly Cloudy
3:58 PM 58.8 °F - 20.1 °F 22% 29.43 in 10.0 mi ENE 11.5 mph - N/A   Scattered Clouds
4:58 PM 58.3 °F - 18.1 °F 21% 29.43 in 10.0 mi Variable 3.5 mph - N/A   Clear
5:58 PM 58.8 °F - 20.1 °F 22% 29.43 in 10.0 mi ENE 15.0 mph - N/A   Partly Cloudy
6:58 PM 56.8 °F - 21.6 °F 25% 29.44 in 10.0 mi ENE 15.0 mph - N/A   Clear
7:58 PM 54.9 °F - 23.5 °F 30% 29.45 in 10.0 mi NE 15.0 mph - N/A   Clear
8:58 PM 52.3 °F - 23.5 °F 33% 29.47 in 10.0 mi NE 13.8 mph - N/A   Clear
9:58 PM 48.6 °F - 25.2 °F 40% 29.49 in 10.0 mi NNE 9.2 mph - N/A   Clear
10:58 PM 44.4 °F 40.0 °F 26.8 °F 50% 29.50 in 10.0 mi North 8.1 mph - N/A   Clear
11:58 PM 39.4 °F 32.3 °F 27.7 °F 63% 29.51 in 10.0 mi NNW 11.5 mph - N/A   Clear